Change the Weather History Date:

Wednesday, October 24, 2012

  Actual Average Record
Temperature  
Mean Temperature 73 °F -  
Max Temperature 78 °F 74 °F 86 °F (2011)
Min Temperature 68 °F 47 °F 37 °F (2013)
Cooling Degree Days 8    
Growing Degree Days 23 (Base 50)    
Moisture  
Dew Point 64 °F    
Average Humidity 75    
Maximum Humidity 88    
Minimum Humidity 61    
Precipitation  
Precipitation 0.00 in - - ()
Sea Level Pressure  
Sea Level Pressure 29.94 in    
Wind  
Wind Speed 10 mph (South)    
Max Wind Speed 22 mph    
Max Gust Speed 29 mph    
Visibility 10 miles    
Events      
Averages and records for this station are not official NWS values.
T = Trace of Precipitation, MM = Missing Value Source: NWS Daily Summary

Daily Weather History Graph

Daily Weather History Graph

Search for Another Location

Airport or City:

Trip Planner

Search our weather history database for the weather conditions in past years. The results will help you decide how hot, cold, wet, or windy it might be!

Date:

Astronomy

Oct. 24, 2012 Rise Set
Actual Time 7:53 AM CDT 7:03 PM CDT
Civil Twilight 7:29 AM CDT 7:27 PM CDT
Nautical Twilight 7:01 AM CDT 7:56 PM CDT
Astronomical Twilight 6:33 AM CDT 8:24 PM CDT
Moon 4:03 PM CDT (10/24) 3:10 AM CDT (10/24)
Length of Visible Light 11h 58m
Length of Day
11h 09m
Waxing Gibbous, 76% of the Moon is Illuminated
Oct 24
Waxing Gibbous
Oct 29
Full
Nov 6
Last Quarter
Nov 13
New
Nov 20
First Quarter

Hourly Weather History & Observations

Time (CDT) Temp. Dew Point Humidity Pressure Visibility Wind Dir Wind Speed Gust Speed Precip Events Conditions
12:35 AM 69.8 °F 62.6 °F 78% 29.98 in 10.0 mi South 4.6 mph - N/A   Clear
12:55 AM 69.8 °F 62.6 °F 78% 29.98 in 10.0 mi SSE 3.5 mph - N/A   Clear
1:15 AM 69.8 °F 62.6 °F 78% 29.98 in 10.0 mi SSE 3.5 mph - N/A   Clear
1:35 AM 69.8 °F 62.6 °F 78% 29.97 in 10.0 mi SSE 3.5 mph - N/A   Clear
1:55 AM 68.0 °F 62.6 °F 83% 29.97 in 10.0 mi SSE 3.5 mph - N/A   Clear
2:35 AM 68.0 °F 62.6 °F 83% 29.97 in 10.0 mi SSE 4.6 mph - N/A   Clear
2:55 AM 68.0 °F 62.6 °F 83% 29.97 in 10.0 mi SSE 4.6 mph - N/A   Clear
3:15 AM 68.0 °F 62.6 °F 83% 29.96 in 10.0 mi SSE 6.9 mph - N/A   Clear
3:35 AM 68.0 °F 62.6 °F 83% 29.96 in 10.0 mi SSE 6.9 mph - N/A   Clear
3:55 AM 68.0 °F 62.6 °F 83% 29.96 in 10.0 mi SSE 8.1 mph - N/A   Clear
4:15 AM 68.0 °F 64.4 °F 88% 29.96 in 10.0 mi South 10.4 mph - N/A   Clear
4:35 AM 68.0 °F 64.4 °F 88% 29.95 in 10.0 mi South 9.2 mph - N/A   Clear
4:55 AM 68.0 °F 64.4 °F 88% 29.95 in 10.0 mi South 9.2 mph - N/A   Clear
5:15 AM 68.0 °F 64.4 °F 88% 29.95 in 10.0 mi South 10.4 mph 16.1 mph N/A   Mostly Cloudy
5:35 AM 68.0 °F 64.4 °F 88% 29.95 in 10.0 mi South 9.2 mph - N/A   Overcast
5:55 AM 68.0 °F 64.4 °F 88% 29.95 in 10.0 mi South 11.5 mph 17.3 mph N/A   Overcast
6:15 AM 69.8 °F 64.4 °F 83% 29.96 in 10.0 mi South 12.7 mph 19.6 mph N/A   Overcast
6:35 AM 69.8 °F 64.4 °F 83% 29.96 in 10.0 mi South 11.5 mph 19.6 mph N/A   Overcast
6:55 AM 69.8 °F 64.4 °F 83% 29.97 in 10.0 mi South 16.1 mph 20.7 mph N/A   Overcast
7:15 AM 69.8 °F 64.4 °F 83% 29.98 in 10.0 mi South 12.7 mph 20.7 mph N/A   Overcast
7:55 AM 69.8 °F 64.4 °F 83% 29.98 in 10.0 mi South 10.4 mph 18.4 mph N/A   Overcast
8:15 AM 69.8 °F 64.4 °F 83% 29.98 in 10.0 mi South 9.2 mph 24.2 mph N/A   Overcast
8:35 AM 69.8 °F 64.4 °F 83% 29.99 in 10.0 mi South 12.7 mph 19.6 mph N/A   Overcast
8:55 AM 69.8 °F 64.4 °F 83% 30.00 in 10.0 mi South 11.5 mph 17.3 mph N/A   Overcast
9:15 AM 69.8 °F 64.4 °F 83% 30.00 in 7.0 mi South 16.1 mph 21.9 mph N/A   Mostly Cloudy
9:35 AM 69.8 °F 64.4 °F 83% 30.01 in 10.0 mi South 15.0 mph 23.0 mph N/A   Mostly Cloudy
9:55 AM 69.8 °F 64.4 °F 83% 30.01 in 10.0 mi South 15.0 mph 18.4 mph N/A   Mostly Cloudy
10:15 AM 69.8 °F 64.4 °F 83% 30.01 in 10.0 mi South 18.4 mph 24.2 mph N/A   Overcast
10:35 AM 69.8 °F 64.4 °F 83% 30.01 in 10.0 mi South 11.5 mph 19.6 mph N/A   Overcast
10:55 AM 71.6 °F 64.4 °F 78% 30.01 in 10.0 mi South 12.7 mph 23.0 mph N/A   Overcast
11:15 AM 71.6 °F 64.4 °F 78% 30.01 in 10.0 mi South 18.4 mph 24.2 mph N/A   Overcast
11:35 AM 71.6 °F 64.4 °F 78% 30.01 in 10.0 mi SSE 16.1 mph 21.9 mph N/A   Overcast
11:55 AM 73.4 °F 64.4 °F 73% 30.00 in 10.0 mi South 21.9 mph 26.5 mph N/A   Overcast
12:15 PM 73.4 °F 64.4 °F 73% 30.00 in 10.0 mi South 18.4 mph 26.5 mph N/A   Overcast
12:35 PM 75.2 °F 64.4 °F 69% 29.99 in 10.0 mi South 17.3 mph 27.6 mph N/A   Mostly Cloudy
12:55 PM 77.0 °F 64.4 °F 65% 29.98 in 10.0 mi South 18.4 mph 24.2 mph N/A   Scattered Clouds
1:15 PM 77.0 °F 64.4 °F 65% 29.97 in 10.0 mi South 20.7 mph 25.3 mph N/A   Scattered Clouds
1:35 PM 77.0 °F 64.4 °F 65% 29.96 in 10.0 mi South 21.9 mph 25.3 mph N/A   Scattered Clouds
1:55 PM 77.0 °F 64.4 °F 65% 29.95 in 10.0 mi South 15.0 mph 21.9 mph N/A   Scattered Clouds
2:15 PM 78.8 °F 64.4 °F 61% 29.94 in 10.0 mi SSE 17.3 mph 24.2 mph N/A   Mostly Cloudy
2:35 PM 78.8 °F 64.4 °F 61% 29.93 in 10.0 mi South 18.4 mph 28.8 mph N/A   Scattered Clouds
2:55 PM 77.0 °F 64.4 °F 65% 29.92 in 10.0 mi South 13.8 mph 24.2 mph N/A   Scattered Clouds
3:15 PM 77.0 °F 64.4 °F 65% 29.92 in 10.0 mi South 19.6 mph 25.3 mph N/A   Scattered Clouds
3:35 PM 77.0 °F 64.4 °F 65% 29.91 in 10.0 mi South 19.6 mph 24.2 mph N/A   Scattered Clouds
4:15 PM 75.2 °F 62.6 °F 65% 29.90 in 10.0 mi South 17.3 mph 24.2 mph N/A   Scattered Clouds
4:35 PM 73.4 °F 62.6 °F 69% 29.89 in 10.0 mi South 16.1 mph 23.0 mph N/A   Scattered Clouds
4:55 PM 75.2 °F 64.4 °F 69% 29.89 in 10.0 mi South 17.3 mph 24.2 mph N/A   Scattered Clouds
5:15 PM 77.0 °F 62.6 °F 61% 29.87 in 10.0 mi SSE 19.6 mph 25.3 mph N/A   Clear
5:35 PM 77.0 °F 64.4 °F 65% 29.86 in 10.0 mi SSE 18.4 mph 24.2 mph N/A   Clear
5:55 PM 77.0 °F 62.6 °F 61% 29.87 in 10.0 mi South 19.6 mph 23.0 mph N/A   Clear
6:15 PM 75.2 °F 62.6 °F 65% 29.88 in 10.0 mi South 17.3 mph 21.9 mph N/A   Clear
6:35 PM 75.2 °F 62.6 °F 65% 29.88 in 10.0 mi South 15.0 mph - N/A   Clear
6:55 PM 73.4 °F 62.6 °F 69% 29.88 in 10.0 mi South 12.7 mph 18.4 mph N/A   Clear
7:15 PM 73.4 °F 62.6 °F 69% 29.88 in 10.0 mi South 9.2 mph - N/A   Clear
7:35 PM 73.4 °F 62.6 °F 69% 29.88 in 10.0 mi South 12.7 mph 17.3 mph N/A   Clear
7:55 PM 73.4 °F 62.6 °F 69% 29.88 in 10.0 mi South 11.5 mph 18.4 mph N/A   Clear
8:15 PM 71.6 °F 62.6 °F 73% 29.89 in 10.0 mi South 11.5 mph 19.6 mph N/A   Clear
8:35 PM 71.6 °F 62.6 °F 73% 29.89 in 10.0 mi South 9.2 mph - N/A   Clear
8:55 PM 71.6 °F 62.6 °F 73% 29.90 in 10.0 mi SSE 8.1 mph - N/A   Clear
9:15 PM 71.6 °F 62.6 °F 73% 29.90 in 10.0 mi South 10.4 mph - N/A   Clear
9:35 PM 71.6 °F 62.6 °F 73% 29.90 in 10.0 mi South 8.1 mph - N/A   Clear
9:55 PM 71.6 °F 62.6 °F 73% 29.90 in 10.0 mi SSE 11.5 mph - N/A   Clear
10:15 PM 71.6 °F 62.6 °F 73% 29.90 in 10.0 mi SSE 9.2 mph 17.3 mph N/A   Clear
10:35 PM 71.6 °F 62.6 °F 73% 29.90 in 10.0 mi South 10.4 mph - N/A   Clear
10:55 PM 71.6 °F 62.6 °F 73% 29.89 in 10.0 mi South 10.4 mph 16.1 mph N/A   Clear
11:15 PM 71.6 °F 62.6 °F 73% 29.89 in 10.0 mi South 9.2 mph 18.4 mph N/A   Clear